Weather History for Pompano Beach, FL

Change the Weather History Date:

Monday, March 25, 2013

  Actual Average Record
Temperature  
Mean Temperature 74 °F -  
Max Temperature 81 °F 81 °F 92 °F (1975)
Min Temperature 66 °F 64 °F 48 °F (1950)
Cooling Degree Days 8    
Growing Degree Days 24 (Base 50)    
Moisture  
Dew Point 61 °F    
Average Humidity 68    
Maximum Humidity 100    
Minimum Humidity 32    
Precipitation  
Precipitation 0.00 in - - ()
Sea Level Pressure  
Sea Level Pressure 29.85 in    
Wind  
Wind Speed 11 mph (WNW)    
Max Wind Speed 15 mph    
Max Gust Speed 21 mph    
Visibility 9 miles    
Events Rain    
Averages and records for this station are not official NWS values.
T = Trace of Precipitation, MM = Missing Value Source: NWS Daily Summary

Daily Weather History Graph

Daily Weather History Graph

Search for Another Location

Airport:

Trip Planner

Search our weather history database for the weather conditions in past years. The results will help you decide how hot, cold, wet, or windy it might be!

Date:

Astronomy

Mar. 25, 2013 Rise Set
Actual Time 7:18 AM EDT 7:34 PM EDT
Civil Twilight 6:55 AM EDT 7:57 PM EDT
Nautical Twilight 6:28 AM EDT 8:24 PM EDT
Astronomical Twilight 6:01 AM EDT 8:51 PM EDT
Moon 6:09 PM EDT (3/25) 5:53 AM EDT (3/25)
Length of Visible Light 13h 01m
Length of Day
12h 15m
Waxing Gibbous, 96% of the Moon is Illuminated
Mar 25
Waxing Gibbous
Mar 27
Full
Apr 3
Last Quarter
Apr 10
New
Apr 18
First Quarter

Hourly Weather History & Observations

Time (EDT) Temp. Dew Point Humidity Pressure Visibility Wind Dir Wind Speed Gust Speed Precip Events Conditions
12:53 AM 78.1 °F 72.0 °F 81% 29.78 in 10.0 mi SW 10.4 mph - N/A   Overcast
1:53 AM 77.0 °F 73.0 °F 88% 29.78 in 10.0 mi WSW 10.4 mph - 0.00 in   Mostly Cloudy
2:14 AM 77.0 °F 73.4 °F 89% 29.77 in 10.0 mi West 9.2 mph - N/A   Mostly Cloudy
2:53 AM 75.9 °F 75.0 °F 97% 29.77 in 10.0 mi West 6.9 mph - 0.00 in   Overcast
3:53 AM 75.9 °F 75.0 °F 97% 29.76 in 10.0 mi West 11.5 mph - N/A   Overcast
4:49 AM 75.2 °F 73.4 °F 94% 29.76 in 9.0 mi West 10.4 mph - N/A   Overcast
4:53 AM 75.0 °F 73.9 °F 96% 29.77 in 9.0 mi West 10.4 mph - N/A   Overcast
5:51 AM 75.2 °F 73.4 °F 94% 29.76 in 8.0 mi WNW 9.2 mph - 0.00 in Rain Light Rain
5:53 AM 75.0 °F 73.9 °F 96% 29.76 in 8.0 mi WNW 11.5 mph - 0.00 in Rain Light Rain
6:18 AM 73.4 °F 73.4 °F 100% 29.77 in 8.0 mi NW 6.9 mph - 0.00 in   Mostly Cloudy
6:53 AM 73.0 °F 73.0 °F 100% 29.77 in 7.0 mi WNW 4.6 mph - 0.00 in   Mostly Cloudy
7:53 AM 73.0 °F 72.0 °F 96% 29.81 in 7.0 mi WNW 10.4 mph - N/A   Mostly Cloudy
8:53 AM 73.0 °F 69.1 °F 87% 29.86 in 7.0 mi West 9.2 mph - N/A   Overcast
9:53 AM 72.0 °F 66.9 °F 84% 29.88 in 8.0 mi West 9.2 mph - N/A   Overcast
10:53 AM 73.9 °F 64.9 °F 73% 29.89 in 10.0 mi West 12.7 mph - N/A   Mostly Cloudy
11:53 AM 75.9 °F 61.0 °F 60% 29.89 in 10.0 mi WNW 15.0 mph - 0.00 in   Scattered Clouds
12:53 PM 75.9 °F 59.0 °F 56% 29.89 in 10.0 mi WNW 15.0 mph - N/A   Scattered Clouds
1:53 PM 79.0 °F 55.0 °F 44% 29.88 in 10.0 mi West 15.0 mph - N/A   Partly Cloudy
2:53 PM 78.1 °F 46.9 °F 33% 29.87 in 10.0 mi NW 15.0 mph - N/A   Mostly Cloudy
3:53 PM 77.0 °F 51.1 °F 40% 29.86 in 10.0 mi NNW 15.0 mph 20.7 mph N/A   Mostly Cloudy
4:53 PM 77.0 °F 50.0 °F 39% 29.86 in 10.0 mi NNW 13.8 mph - N/A   Overcast
5:53 PM 75.0 °F 46.9 °F 37% 29.88 in 10.0 mi NW 9.2 mph - N/A   Overcast
6:53 PM 73.9 °F 45.0 °F 35% 29.91 in 10.0 mi NNW 13.8 mph - N/A   Scattered Clouds
7:53 PM 73.0 °F 44.1 °F 35% 29.93 in 10.0 mi NNW 8.1 mph - N/A   Scattered Clouds
8:53 PM 72.0 °F 42.1 °F 34% 29.96 in 10.0 mi NW 10.4 mph - N/A   Scattered Clouds
9:53 PM 70.0 °F 39.0 °F 32% 29.97 in 10.0 mi NNW 11.5 mph - N/A   Mostly Cloudy
10:53 PM 68.0 °F 41.0 °F 37% 29.99 in 10.0 mi NW 12.7 mph - N/A   Clear
11:53 PM 66.0 °F 39.9 °F 38% 30.01 in 10.0 mi NW 12.7 mph - N/A   Clear